This demonstration page uses our WeatherBlox Daily Observations layout. Learn more.

Left ArrowRight Arrow

Hourly Observations for January 4, 2017

Temp ( °F °C ) Dew Point ( °F °C ) Humidity (%) Winds ( mph kmh ) Pressure ( in mb ) Visibility ( mi km ) Precip ( " mm )
12:53 am 00:53 Clear 41 5 31 -0.6 67 67 E 12 19 30.10 1019 10 16 0.00 0.00
1:53 am 01:53 Clear 40 4.4 30 -1.1 68 68 E 9 15 30.08 1019 10 16 0.00 0.00
2:53 am 02:53 Mostly Cloudy 39 3.9 29 -1.7 67 67 ENE 9 15 30.09 1019 10 16 0.00 0.00
3:53 am 03:53 Mostly Clear 38 3.3 28 -2.2 68 68 ENE 10 17 30.09 1019 10 16 0.00 0.00
4:53 am 04:53 Partly Cloudy 37 2.8 28 -2.2 70 70 ENE 10 17 30.09 1019 10 16 0.00 0.00
5:53 am 05:53 Clear 36 2.2 27 -2.8 70 70 ENE 8 13 30.09 1019 10 16 0.00 0.00
6:53 am 06:53 Mostly Cloudy 35 1.7 26 -3.3 70 70 E 10 17 30.09 1019 10 16 0.00 0.00
7:53 am 07:53 Cloudy 35 1.7 25 -3.9 67 67 E 9 15 30.13 1020 10 16 0.00 0.00
8:53 am 08:53 Cloudy 35 1.7 25 -3.9 67 67 ENE 9 15 30.14 1021 10 16 0.00 0.00
9:53 am 09:53 Sunny 37 2.8 25 -3.9 62 62 ESE 3 6 30.14 1021 10 16 0.00 0.00
10:53 am 10:53 Sunny 39 3.9 27 -2.8 62 62 SE 7 11 30.13 1020 10 16 0.00 0.00
11:53 am 11:53 Sunny 43 6.1 28 -2.2 56 56 SSW 5 7 30.09 1019 10 16 0.00 0.00
12:53 pm 12:53 Sunny 45 7.2 29 -1.7 54 54 VRB 3 6 30.01 1016 10 16 0.00 0.00
1:53 pm 13:53 Sunny 49 9.4 30 -1.1 48 48 S 8 13 29.93 1014 10 16 0.00 0.00
2:53 pm 14:53 Sunny 52 11.1 30 -1.1 43 43 SSE 7 11 29.91 1013 10 16 0.00 0.00
3:53 pm 15:53 Sunny 54 12.2 31 -0.6 42 42 SSE 7 11 29.88 1012 10 16 0.00 0.00
4:53 pm 16:53 Sunny 56 13.3 31 -0.6 39 39 SE 6 9 29.86 1011 10 16 0.00 0.00
5:53 pm 17:53 Sunny 53 11.7 32 0 45 45 SSE 8 13 29.85 1011 10 16 0.00 0.00
6:53 pm 18:53 Clear 49 9.4 32 0 52 52 SE 6 9 29.86 1011 10 16 0.00 0.00
7:53 pm 19:53 Clear 45 7.2 32 0 61 61 SSE 9 15 29.85 1011 10 16 0.00 0.00
8:53 pm 20:53 Clear 43 6.1 32 0 65 65 SE 8 13 29.83 1010 10 16 0.00 0.00
9:53 pm 21:53 Clear 42 5.6 32 0 68 68 VRB 7 11 29.82 1010 10 16 0.00 0.00
10:53 pm 22:53 Clear 40 4.4 32 0 73 73 VRB 3 6 29.82 1010 10 16 0.00 0.00
11:53 pm 23:53 Clear 37 2.8 32 0 82 82 Calm 29.81 1010 10 16 0.00 0.00

Powered by AerisWeather